Hourly Data Report for June 02, 2021

WINNIPEG THE FORKS
MANITOBA
Current Station Operator: ECCC - MSC

49°53'18.008" N
97°07'46.007" W
230.00 m
5023262
71579
XWN

Download Data

Hourly Data (June 2021)
Hourly Data Report for June 2, 2021
TIME
LST
Temp Definition
°C
Dew Point Definition
°C
Rel Hum Definition
%
Precip. Amount Definition
mm

Wind Dir Definition
10's deg

Wind Spd Definition
km/h
Visibility Definition
km
Stn Press Definition
kPa
Hmdx Definition


Wind Chill Definition


Weather Definition


00:00 18.9 6.7 45 0.0 20 8   98.45     LegendNANA
01:00 18.0 6.2 46 0.0 22 9   98.41     LegendNANA
02:00 16.5 5.9 49 0.0 1 4   98.41     LegendNANA
03:00 14.1 7.4 64 0.0 2 1   98.40     LegendNANA
04:00 12.8 8.2 74 0.0   0   98.35     LegendNANA
05:00 12.4 9.0 80 0.0   0   98.35     LegendNANA
06:00 14.7 8.3 65 0.0 10 3   98.37     LegendNANA
07:00 17.9 7.8 52 0.0 0 1   98.32     LegendNANA
08:00 18.9 6.8 45 0.0 0 1   98.32     LegendNANA
09:00 20.5 5.5 37 0.0 21 4   98.30     LegendNANA
10:00 22.9 7.5 37 0.0 4 4   98.26     LegendNANA
11:00 23.6 7.3 35 0.0 4 3   98.23     LegendNANA
12:00 25.3 5.8 29 0.0 29 4   98.19 25   LegendNANA
13:00 26.3 3.6 23 0.0 25 7   98.16 25   LegendNANA
14:00 27.1 3.9 23 0.0 1 3   98.10 26   LegendNANA
15:00 27.9 4.9 23 0.0 21 8   98.03 27   LegendNANA
16:00 28.4 4.1 21 0.0 26 4   97.96 27   LegendNANA
17:00 29.1 4.9 22 0.0 21 9   97.87 28   LegendNANA
18:00 29.1 5.9 23 0.0 23 9   97.82 29   LegendNANA
19:00 28.6 5.9 24 0.0 22 10   97.74 28   LegendNANA
20:00 26.9 6.3 27 0.0 20 7   97.67 27   LegendNANA
21:00 25.6 6.3 29 0.0 20 7   97.65 25   LegendNANA
22:00 25.3 5.1 27 0.0 20 8   97.60 25   LegendNANA
23:00 24.5 4.6 28 0.0 20 9   97.56     LegendNANA

Notes on Data Quality.

Legend

  • E = Estimated
  • M = Missing
  • NA = Not Available*
  • [empty] = Indicates an unobserved value
Date modified: